Temp
-17 -17 -17 -17 -17 -17 -17 -17 -17 -17 -17 -16 -16 -16 -16 -16 -16 -16 -16 -16 -16 -16 -16 -16 -16 -15 -15 -15 -15 -14 -14 -14 -14 -14 -13 -14 -14 -14 -14 -13 -13 -13
-17 -17 -17 -17 -17 -17 -17 -17 -17 -18 -18 -17 -17 -17 -17 -17 -17 -17 -17 -17 -17 -17 -17 -16 -16 -16 -16 -16 -15 -15 -15 -14 -14 -14 -14 -14 -14 -14 -14 -14 -14 -14
-18 -18 -18 -18 -18 -18 -17 -17 -17 -18 -18 -18 -18 -18 -18 -18 -18 -18 -18 -18 -18 -18 -18 -17 -17 -17 -17 -17 -16 -16 -16 -15 -15 -15 -15 -14 -15 -15 -15 -15 -15 -15
-19 -19 -18 -18 -18 -18 -18 -18 -18 -18 -18 -18 -18 -18 -18 -18 -18 -18 -18 -18 -18 -19 -19 -18 -18 -18 -18 -17 -17 -17 -16 -16 -16 -16 -16 -15 -15 -15 -15 -15 -15 -15
-19 -19 -19 -19 -19 -19 -19 -19 -19 -19 -19 -19 -19 -19 -19 -19 -19 -19 -19 -19 -19 -19 -19 -19 -19 -19 -19 -18 -18 -18 -17 -17 -17 -16 -16 -16 -16 -16 -16 -16 -16 -16
-20 -20 -20 -20 -20 -20 -20 -20 -19 -19 -19 -19 -19 -19 -19 -19 -19 -19 -19 -19 -19 -19 -19 -19 -19 -19 -19 -19 -19 -18 -18 -18 -18 -17 -17 -17 -17 -17 -17 -17 -17 -17
-21 -21 -21 -21 -21 -21 -20 -20 -20 -20 -20 -20 -20 -20 -20 -20 -20 -20 -20 -20 -20 -20 -20 -20 -20 -19 -19 -19 -19 -19 -19 -18 -18 -18 -18 -17 -17 -17 -17 -17 -17 -17
-21 -21 -21 -21 -21 -21 -21 -21 -21 -21 -21 -21 -20 -20 -20 -20 -20 -20 -20 -20 -20 -20 -20 -20 -20 -20 -20 -19 -19 -19 -19 -19 -19 -18 -18 -18 -18 -18 -18 -18 -18 -18
-22 -22 -22 -22 -22 -22 -22 -22 -22 -22 -22 -21 -21 -21 -21 -21 -21 -21 -21 -21 -21 -21 -21 -21 -21 -20 -20 -20 -19 -19 -19 -19 -19 -19 -19 -19 -18 -18 -18 -18 -18 -18
-22 -23 -23 -23 -23 -23 -23 -22 -22 -22 -22 -22 -22 -22 -22 -22 -22 -22 -22 -22 -22 -22 -21 -21 -21 -21 -21 -20 -20 -19 -19 -19 -19 -19 -19 -19 -19 -19 -18 -18 -18 -18
-22 -22 -22 -22 -22 -22 -22 -22 -22 -22 -22 -22 -22 -22 -22 -22 -22 -22 -22 -22 -22 -22 -22 -22 -22 -22 -22 -21 -21 -20 -20 -19 -19 -19 -19 -19 -19 -19 -19 -19 -19 -19
-22 -22 -22 -22 -22 -22 -22 -22 -22 -22 -22 -22 -22 -22 -22 -22 -22 -22 -22 -22 -22 -22 -22 -22 -22 -22 -22 -22 -21 -21 -21 -20 -20 -20 -20 -20 -20 -19 -19 -19 -19 -19
-23 -23 -23 -23 -23 -23 -23 -23 -23 -23 -23 -23 -23 -23 -23 -23 -23 -23 -23 -23 -23 -22 -22 -22 -22 -22 -21 -21 -21 -21 -21 -21 -21 -20 -20 -20 -20 -20 -20 -20 -19 -19
-23 -23 -23 -23 -23 -23 -23 -23 -23 -23 -23 -23 -23 -24 -24 -24 -24 -24 -24 -24 -24 -24 -23 -23 -23 -22 -22 -22 -21 -21 -21 -21 -21 -21 -21 -20 -20 -20 -21 -20 -20 -20
-24 -25 -25 -25 -25 -25 -25 -25 -25 -25 -25 -25 -25 -25 -25 -25 -25 -25 -24 -24 -24 -24 -24 -24 -24 -23 -23 -23 -22 -22 -21 -21 -21 -21 -21 -21 -21 -21 -21 -21 -21 -21
-26 -26 -26 -26 -27 -27 -27 -27 -27 -26 -26 -26 -26 -26 -26 -26 -25 -25 -25 -25 -25 -25 -25 -25 -25 -25 -24 -24 -24 -23 -23 -22 -22 -21 -21 -21 -21 -21 -21 -21 -21 -21
-28 -28 -28 -28 -28 -28 -28 -28 -28 -28 -28 -28 -28 -27 -27 -27 -27 -26 -26 -26 -26 -25 -25 -25 -25 -25 -25 -25 -25 -25 -24 -24 -23 -23 -22 -22 -21 -21 -21 -21 -21 -22
-29 -29 -29 -29 -29 -29 -29 -29 -29 -29 -29 -29 -29 -29 -28 -28 -28 -28 -27 -27 -27 -26 -26 -26 -25 -25 -25 -25 -25 -25 -25 -25 -24 -24 -23 -23 -22 -22 -21 -21 -21 -21
-30 -30 -30 -30 -30 -30 -30 -30 -30 -30 -30 -30 -30 -29 -29 -29 -29 -28 -28 -28 -28 -28 -27 -27 -27 -26 -26 -26 -26 -26 -25 -25 -25 -24 -24 -23 -23 -23 -22 -22 -21 -21
-30 -30 -30 -30 -30 -30 -30 -30 -30 -30 -30 -30 -30 -30 -30 -29 -29 -29 -29 -29 -29 -28 -28 -28 -27 -27 -27 -27 -27 -26 -26 -26 -25 -25 -24 -24 -23 -23 -23 -23 -22 -22
-31 -31 -31 -31 -31 -31 -31 -31 -30 -30 -30 -30 -30 -30 -30 -30 -29 -29 -29 -29 -29 -29 -29 -28 -28 -28 -28 -28 -28 -28 -27 -27 -26 -25 -25 -24 -24 -23 -23 -23 -23 -22
-31 -31 -31 -31 -31 -31 -31 -31 -31 -31 -31 -31 -30 -30 -30 -30 -30 -30 -29 -29 -29 -29 -29 -29 -28 -28 -28 -28 -28 -28 -28 -28 -27 -27 -26 -25 -24 -24 -23 -23 -23 -23
-31 -31 -31 -31 -31 -31 -31 -31 -31 -31 -31 -31 -30 -30 -30 -30 -30 -30 -29 -29 -29 -29 -29 -29 -28 -28 -28 -28 -28 -28 -28 -28 -28 -27 -27 -26 -25 -24 -24 -24 -23 -23
-31 -31 -31 -31 -31 -31 -31 -31 -31 -31 -31 -31 -30 -30 -30 -30 -30 -29 -29 -29 -29 -29 -29 -28 -28 -28 -28 -28 -28 -28 -28 -28 -28 -27 -27 -27 -26 -26 -25 -24 -24 -23
-31 -32 -32 -31 -31 -31 -31 -31 -31 -31 -31 -31 -31 -30 -30 -30 -29 -29 -29 -29 -29 -29 -29 -28 -28 -28 -28 -28 -28 -28 -28 -28 -28 -27 -27 -27 -27 -26 -26 -26 -25 -24
-32 -32 -32 -32 -32 -32 -32 -32 -31 -31 -31 -31 -31 -30 -30 -30 -30 -29 -29 -29 -29 -29 -29 -29 -29 -29 -29 -29 -28 -28 -28 -28 -28 -28 -28 -27 -27 -27 -27 -26 -26 -26
Height
5688 5686 5685 5683 5681 5680 5679 5678 5678 5677 5677 5676 5676 5675 5675 5675 5675 5675 5675 5675 5674 5674 5674 5674 5674 5675 5675 5675 5675 5675 5675 5675 5675 5674 5674 5675 5675 5676 5676 5676 5676 5677
5678 5677 5676 5674 5673 5671 5670 5669 5668 5667 5666 5666 5665 5664 5664 5664 5663 5663 5663 5663 5663 5663 5663 5663 5663 5663 5664 5664 5664 5665 5664 5664 5664 5664 5664 5665 5664 5665 5666 5665 5666 5666
5666 5666 5665 5664 5664 5662 5661 5660 5659 5658 5657 5656 5655 5654 5653 5652 5652 5652 5652 5651 5651 5651 5651 5651 5651 5652 5652 5652 5653 5653 5653 5654 5654 5653 5654 5654 5653 5654 5654 5654 5655 5655
5654 5654 5654 5653 5653 5652 5651 5651 5649 5649 5648 5646 5645 5644 5643 5642 5642 5641 5640 5640 5640 5640 5640 5640 5640 5641 5641 5641 5641 5642 5642 5642 5642 5642 5643 5643 5643 5643 5643 5643 5644 5644
5645 5643 5643 5642 5642 5641 5641 5640 5639 5638 5637 5636 5635 5634 5633 5632 5631 5630 5630 5629 5629 5629 5629 5629 5629 5629 5629 5630 5630 5630 5631 5631 5631 5631 5632 5632 5631 5632 5633 5633 5633 5634
5634 5633 5631 5631 5630 5630 5629 5629 5628 5627 5626 5625 5624 5623 5622 5621 5620 5619 5619 5618 5617 5617 5617 5617 5618 5618 5618 5618 5619 5619 5619 5619 5619 5620 5621 5622 5621 5621 5621 5621 5623 5623
5623 5622 5620 5619 5618 5617 5617 5616 5616 5615 5614 5613 5612 5611 5610 5610 5609 5608 5607 5607 5606 5605 5605 5605 5606 5606 5607 5608 5608 5608 5607 5607 5608 5608 5609 5610 5610 5610 5610 5610 5611 5613
5612 5610 5609 5607 5606 5605 5604 5603 5602 5602 5601 5601 5600 5599 5598 5598 5597 5597 5596 5595 5595 5594 5594 5594 5593 5594 5594 5595 5596 5597 5597 5596 5596 5596 5597 5598 5599 5599 5599 5598 5600 5602
5599 5598 5596 5595 5594 5593 5592 5591 5590 5589 5588 5588 5587 5586 5586 5585 5584 5584 5584 5584 5583 5583 5582 5581 5581 5581 5582 5582 5582 5583 5584 5584 5584 5584 5584 5585 5586 5587 5587 5586 5587 5590
5587 5586 5584 5583 5581 5580 5579 5578 5578 5577 5576 5575 5575 5574 5573 5572 5572 5571 5571 5571 5571 5570 5570 5569 5568 5569 5569 5569 5569 5568 5569 5569 5570 5570 5571 5572 5572 5573 5574 5574 5575 5577
5574 5573 5571 5569 5567 5566 5564 5563 5563 5563 5562 5561 5560 5560 5559 5558 5558 5558 5557 5557 5557 5556 5556 5555 5555 5555 5555 5556 5555 5554 5554 5553 5554 5554 5556 5557 5558 5559 5560 5560 5562 5564
5560 5558 5556 5555 5553 5551 5550 5548 5547 5546 5546 5545 5544 5543 5543 5542 5542 5542 5542 5543 5543 5543 5542 5541 5541 5541 5541 5541 5541 5540 5539 5539 5539 5538 5539 5541 5543 5544 5545 5545 5547 5549
5545 5543 5541 5539 5538 5536 5534 5533 5531 5530 5530 5528 5527 5526 5526 5525 5525 5525 5525 5525 5526 5526 5527 5527 5527 5528 5528 5527 5526 5525 5524 5524 5525 5524 5524 5525 5526 5529 5530 5531 5532 5534
5529 5527 5525 5523 5521 5520 5518 5517 5515 5514 5513 5512 5511 5510 5509 5509 5508 5508 5509 5508 5508 5508 5509 5509 5510 5512 5513 5512 5510 5509 5508 5508 5509 5509 5509 5509 5510 5512 5514 5516 5518 5520
5514 5512 5510 5508 5505 5504 5502 5501 5500 5499 5497 5496 5494 5493 5492 5492 5492 5492 5492 5492 5491 5491 5491 5492 5492 5494 5496 5495 5493 5492 5492 5491 5492 5492 5493 5493 5494 5495 5496 5499 5503 5505
5499 5498 5496 5494 5491 5489 5487 5486 5484 5483 5482 5481 5479 5478 5477 5476 5475 5475 5474 5473 5474 5474 5475 5475 5476 5477 5479 5478 5476 5474 5473 5472 5473 5474 5475 5476 5477 5479 5480 5482 5485 5487
5486 5485 5484 5482 5479 5476 5474 5472 5470 5469 5468 5466 5465 5464 5462 5461 5460 5459 5458 5456 5455 5455 5457 5458 5459 5461 5462 5461 5459 5457 5455 5454 5453 5454 5456 5458 5460 5462 5465 5467 5468 5469
5474 5473 5472 5470 5467 5465 5463 5461 5459 5457 5455 5453 5451 5449 5448 5447 5446 5444 5443 5442 5440 5438 5439 5439 5440 5443 5443 5441 5439 5438 5436 5434 5433 5435 5437 5439 5442 5445 5448 5451 5452 5453
5463 5462 5460 5458 5455 5453 5451 5449 5447 5445 5442 5440 5437 5436 5434 5433 5432 5430 5429 5429 5426 5424 5423 5423 5424 5425 5424 5420 5417 5416 5415 5413 5412 5414 5417 5420 5424 5427 5431 5434 5436 5437
5453 5451 5449 5447 5444 5441 5439 5437 5434 5432 5430 5426 5423 5422 5421 5419 5418 5417 5416 5415 5412 5409 5407 5407 5409 5409 5406 5401 5397 5395 5393 5391 5390 5392 5396 5401 5405 5408 5411 5415 5419 5421
5444 5441 5439 5436 5433 5430 5428 5425 5422 5419 5417 5413 5410 5409 5407 5406 5404 5403 5401 5400 5398 5394 5391 5391 5394 5393 5389 5384 5380 5377 5374 5371 5369 5371 5375 5380 5385 5390 5392 5395 5398 5401
5434 5432 5429 5426 5423 5420 5418 5415 5411 5408 5405 5400 5397 5397 5395 5393 5390 5388 5386 5385 5383 5379 5375 5374 5378 5378 5372 5367 5364 5362 5358 5354 5353 5353 5355 5359 5364 5370 5373 5375 5378 5380
5425 5422 5419 5416 5413 5410 5407 5404 5401 5397 5394 5389 5386 5385 5383 5380 5376 5374 5372 5369 5367 5365 5360 5358 5362 5363 5356 5350 5348 5346 5342 5339 5338 5337 5338 5341 5345 5349 5352 5353 5357 5360
5415 5412 5409 5406 5403 5400 5397 5394 5390 5386 5383 5379 5375 5373 5371 5367 5363 5360 5360 5356 5352 5349 5346 5342 5344 5346 5340 5333 5332 5331 5326 5323 5322 5322 5323 5325 5328 5331 5332 5333 5336 5342
5405 5402 5398 5395 5393 5390 5386 5383 5379 5375 5372 5368 5364 5360 5357 5354 5350 5346 5346 5345 5339 5334 5331 5327 5326 5328 5324 5316 5315 5315 5311 5307 5307 5306 5308 5311 5311 5312 5314 5317 5320 5325
5396 5392 5389 5385 5382 5379 5376 5372 5368 5364 5361 5357 5353 5349 5345 5342 5338 5334 5333 5332 5327 5321 5318 5314 5310 5311 5309 5303 5300 5300 5297 5293 5292 5292 5293 5294 5294 5295 5298 5302 5306 5308
Wind_Speed
69 69 69 68 68 67 67 67 66 66 67 67 68 69 70 70 70 71 71 73 73 75 75 75 76 76 76 75 75 76 76 76 76 77 77 77 77 77 78 78 79 79
70 69 69 69 69 69 69 69 69 69 69 70 70 71 72 72 72 72 73 74 75 75 76 76 76 76 77 76 76 77 78 79 79 79 79 80 80 80 80 80 81 81
70 68 67 66 67 68 69 69 70 71 72 73 74 74 75 74 74 74 74 75 75 75 76 76 77 77 77 77 77 77 78 79 80 81 81 82 83 82 82 82 82 83
70 69 69 68 68 68 69 70 72 73 74 76 77 78 78 79 79 78 78 77 76 76 76 76 76 77 77 78 78 79 80 81 81 81 82 82 83 84 84 84 84 84
72 73 73 73 73 74 74 74 75 76 77 78 79 79 80 80 81 81 81 81 80 79 78 78 78 78 78 78 79 80 81 82 83 83 83 83 84 84 84 85 85 84
76 77 76 76 75 75 75 75 76 78 80 80 80 80 81 81 81 81 82 83 83 83 82 81 81 81 82 82 82 82 83 83 84 85 84 84 85 85 85 85 85 85
78 78 79 79 78 78 78 78 78 79 81 82 83 83 82 82 82 82 83 84 85 86 86 85 84 84 84 85 85 86 86 86 86 87 87 87 86 86 86 85 85 85
80 81 81 82 82 82 81 81 80 80 80 82 83 84 83 82 82 83 83 84 84 86 88 89 88 87 87 87 87 88 87 87 87 87 88 89 89 89 88 88 86 85
82 82 83 83 84 84 82 81 80 79 79 80 80 81 81 81 81 81 82 82 83 84 86 88 90 91 91 91 91 91 91 89 87 87 87 89 90 90 91 91 90 88
83 84 84 85 86 87 87 86 85 84 84 84 84 84 84 84 83 83 83 83 83 83 84 86 88 90 92 94 96 97 97 96 93 90 89 89 89 91 92 92 92 90
88 88 89 90 90 91 91 92 91 91 92 92 92 93 93 93 93 92 90 89 87 87 86 86 86 88 90 93 95 98 100 101 101 99 95 92 90 91 92 92 91 90
94 94 95 95 96 96 96 97 97 97 97 97 98 99 99 99 99 98 97 96 94 93 92 91 90 90 91 92 94 96 99 102 104 105 104 100 96 92 91 91 89 88
99 99 100 100 100 100 101 101 101 101 101 101 101 101 102 102 102 101 101 100 99 98 97 97 96 96 96 97 98 98 99 101 103 105 107 107 104 100 95 92 90 88
102 102 103 103 103 103 103 103 103 103 104 104 104 104 104 103 103 103 102 102 101 100 100 100 100 100 100 101 103 103 103 103 103 104 106 108 109 107 103 98 95 92
100 100 100 100 100 100 100 101 101 101 102 102 103 103 104 104 104 104 103 103 102 102 101 101 101 101 101 102 104 106 107 108 107 107 107 107 109 110 108 104 100 97
92 92 91 91 92 92 92 93 93 94 95 96 97 98 100 101 102 102 103 103 104 103 103 102 102 101 101 101 103 104 106 108 110 110 110 110 109 110 110 108 105 102
83 83 83 83 83 84 84 85 86 87 88 89 91 92 94 95 97 99 100 102 103 104 104 104 104 103 102 102 103 104 105 107 109 111 112 112 112 112 111 111 109 106
78 78 77 77 78 78 79 80 81 82 83 84 86 87 89 90 92 94 96 98 99 101 102 103 104 104 104 104 105 105 106 107 109 111 112 113 112 112 113 113 113 111
75 75 74 74 75 75 76 77 78 79 80 81 83 84 85 87 88 90 91 93 94 96 98 99 100 101 103 105 106 108 108 109 111 112 113 114 114 114 113 113 114 114
71 71 72 72 73 74 74 75 76 77 78 79 81 82 83 84 84 85 86 87 88 90 92 93 94 95 97 100 103 105 107 110 112 113 114 115 115 116 116 115 115 115
68 69 69 70 71 72 73 74 75 76 77 79 80 80 81 81 82 82 82 83 84 85 87 88 88 89 91 93 96 99 101 105 108 111 114 115 116 116 117 117 117 117
67 68 69 70 71 72 73 74 75 76 78 79 80 80 80 81 81 82 82 82 82 83 85 85 84 84 86 88 90 92 95 98 101 104 108 111 114 115 116 118 119 119
68 69 70 71 72 73 74 75 76 77 79 80 81 80 80 81 82 82 82 82 83 83 84 84 82 82 84 87 88 89 91 93 95 97 100 102 106 109 112 115 117 118
70 70 71 72 73 73 74 75 76 77 78 79 80 80 80 81 82 82 81 81 82 82 82 83 82 81 83 85 87 88 90 92 93 94 95 95 97 99 102 106 110 112
70 70 71 72 72 73 74 75 76 77 78 78 79 79 79 79 79 79 77 77 77 77 77 78 78 77 79 82 83 84 87 89 91 92 92 92 93 94 94 96 99 101
69 70 70 71 72 72 73 75 76 77 76 76 75 75 75 74 74 74 72 69 68 68 68 68 69 69 69 72 74 75 78 81 83 86 87 89 90 92 92 91 92 92
Wind_Direction
274 275 276 276 275 274 274 272 271 269 267 265 264 263 262 261 261 260 260 261 262 262 263 263 262 261 260 260 259 258 257 257 258 259 260 260 261 261 261 261 261 262
274 273 273 272 272 271 271 270 270 269 268 267 266 265 264 263 263 263 263 263 263 264 265 265 265 263 262 261 260 258 257 257 257 258 258 259 260 260 260 260 260 261
275 274 272 270 269 269 269 269 269 268 267 267 266 265 265 265 265 265 265 265 266 266 266 266 266 266 265 264 262 260 259 258 258 258 258 259 259 260 260 260 260 260
277 275 273 271 270 270 271 271 270 269 268 266 264 264 264 264 264 264 265 265 265 266 267 267 266 266 265 265 264 263 262 260 260 260 259 260 260 260 260 260 260 260
275 275 274 273 272 271 271 271 270 270 269 267 265 264 263 263 263 263 263 263 263 263 264 266 267 266 266 265 264 264 263 262 261 261 261 261 261 261 260 260 260 260
276 276 275 274 273 271 270 270 269 268 267 267 266 265 264 264 264 264 263 263 262 262 262 263 264 266 266 266 266 266 265 264 263 262 262 262 262 262 262 261 261 260
277 276 276 276 275 274 273 272 270 268 266 266 266 266 266 266 266 265 264 263 262 262 261 261 262 263 264 265 266 266 266 265 264 263 262 262 262 262 262 262 261 260
278 278 278 278 277 277 276 275 272 269 267 266 266 266 266 266 267 267 266 265 263 262 261 260 260 260 260 262 263 263 263 263 263 263 262 262 262 262 262 262 261 260
282 281 281 280 280 279 278 276 273 271 269 267 266 266 266 266 266 266 266 265 264 263 262 261 260 259 258 258 259 260 261 261 261 261 261 261 261 261 261 261 261 260
281 280 280 279 279 278 277 276 274 273 271 270 269 268 267 267 267 267 267 266 266 265 264 262 261 260 259 258 258 258 259 260 260 260 259 259 259 259 260 260 259 259
279 279 278 278 277 277 277 276 275 274 272 271 271 270 270 269 269 269 268 268 267 266 265 264 263 262 261 260 259 259 259 260 261 262 262 260 258 257 256 256 256 256
279 279 278 278 278 277 277 276 276 275 274 273 272 272 271 271 271 271 270 269 267 266 266 265 264 264 263 262 262 261 260 260 261 262 263 264 262 259 256 254 253 252
280 280 279 279 278 278 277 277 276 276 275 275 274 274 273 273 273 273 272 271 270 269 267 266 265 264 264 264 263 263 263 262 261 261 262 263 264 264 261 258 255 252
281 281 280 280 279 278 278 277 276 276 275 275 275 274 274 274 274 273 273 273 273 272 270 269 268 266 266 265 264 264 264 263 263 262 262 262 263 264 263 262 259 257
282 281 281 280 280 279 278 277 277 276 276 275 275 275 274 274 274 274 273 273 273 272 272 271 270 269 268 267 266 265 265 264 263 263 263 262 263 264 264 264 262 261
282 281 281 280 280 279 279 278 278 277 276 276 276 275 275 274 274 274 273 273 272 271 271 271 270 269 269 268 267 266 266 265 264 264 263 262 262 263 264 265 265 264
282 282 281 281 280 280 280 279 279 278 278 277 277 276 276 275 274 274 274 273 273 272 271 271 270 269 269 268 267 267 266 265 265 264 264 263 262 262 262 263 265 265
283 283 282 282 282 281 281 281 281 280 280 279 278 278 277 276 276 275 275 274 274 274 273 272 272 271 270 269 268 267 267 266 265 264 264 263 263 262 261 262 263 264
285 285 285 284 284 284 283 283 282 282 281 281 280 280 279 278 278 277 277 276 276 276 275 274 274 273 272 272 271 269 268 267 266 265 264 263 263 263 262 261 261 262
287 287 286 286 286 285 285 285 284 284 283 283 282 282 281 280 280 280 279 279 278 277 276 275 274 274 273 273 272 271 270 269 268 266 265 264 263 263 262 262 261 260
288 288 288 287 287 287 287 286 286 286 286 285 284 284 284 284 283 283 282 281 280 279 278 277 275 275 274 273 272 272 271 270 269 268 266 265 263 263 262 262 262 261
289 289 288 288 288 287 288 287 287 287 287 287 286 286 287 287 286 285 284 283 282 281 280 279 277 276 275 274 273 272 272 271 270 269 268 266 264 263 262 262 261 261
289 289 289 288 288 288 288 288 288 288 288 288 288 289 289 288 287 287 286 285 284 283 282 281 279 278 276 275 274 273 272 271 271 270 269 268 266 264 263 262 261 261
289 289 289 289 289 289 289 289 289 289 289 289 290 290 290 289 288 288 287 286 285 284 283 282 280 278 277 275 274 273 272 271 271 270 270 269 268 266 265 263 262 261
290 290 290 290 290 290 290 291 290 291 291 292 292 292 291 291 290 289 288 288 287 286 284 283 281 279 277 276 274 273 272 271 271 270 270 270 269 268 266 265 264 263
290 290 290 291 291 292 292 292 293 294 294 295 295 294 294 293 293 292 291 291 290 288 287 286 284 283 281 279 278 276 275 274 272 271 270 269 268 267 267 266 265 264